Wind_Speed
14 14 14 14 15 14 12 12 12 12 12 11 11 11 10 10 9 8 7 6 6 6 5 4 4 3 2 2 1 2 2 2 3 3 4 4 5 6 6 5 5 5 5 5 4 4 3 4 3
14 14 14 15 15 13 12 12 12 12 12 11 11 11 11 10 9 8 7 7 6 6 5 3 3 3 2 2 2 1 2 2 3 3 3 5 6 6 6 5 5 5 5 4 4 4 3 3 3
13 14 14 14 14 12 12 12 12 12 12 11 11 11 11 10 9 9 8 7 7 6 5 4 3 3 2 2 1 1 1 1 2 2 3 4 6 6 6 5 5 5 4 4 4 4 3 3 3
13 14 14 14 13 13 12 12 12 12 12 11 11 11 11 10 9 8 8 7 7 6 5 4 4 3 2 2 1 1 0 1 2 2 2 3 5 6 6 5 5 5 4 4 4 3 2 2 2
13 13 14 13 12 12 12 11 12 12 12 11 11 10 10 10 9 8 7 7 7 6 6 5 4 3 3 2 3 1 0 1 2 2 2 4 5 6 5 5 5 4 4 3 3 3 2 2 2
13 13 12 11 11 12 12 11 12 12 12 11 11 11 10 9 9 8 8 7 7 6 6 5 4 4 3 3 3 2 0 1 3 3 3 4 5 5 5 5 4 4 4 4 4 3 3 3 2
12 12 12 10 10 11 11 11 11 11 12 11 11 11 10 10 9 9 8 8 7 6 6 5 5 4 4 4 4 3 1 1 3 3 3 4 4 4 4 4 4 3 3 3 3 3 3 3 2
10 11 11 9 9 10 11 11 11 11 11 11 11 11 10 10 9 9 8 8 8 7 6 5 5 5 5 5 5 4 2 1 3 3 3 3 4 4 4 4 3 2 2 3 2 2 2 1 1
9 10 9 9 9 9 10 11 11 11 11 11 11 11 10 10 9 9 8 8 8 7 6 5 5 5 5 6 7 6 4 3 3 3 3 3 3 4 4 4 3 2 1 1 2 2 2 1 1
8 8 7 8 8 9 9 10 10 11 11 11 11 11 10 10 9 9 8 8 8 7 6 6 5 5 6 6 7 6 6 4 4 3 3 3 3 4 4 3 2 2 1 1 2 2 1 2 1
7 7 7 7 8 8 9 9 10 10 10 10 10 10 10 9 9 9 8 8 8 7 6 6 5 6 6 6 6 6 6 5 4 3 3 3 3 3 3 2 2 2 2 1 1 2 1 0 1
5 6 6 6 7 7 8 9 9 9 9 9 9 10 10 9 9 9 8 8 8 7 6 6 6 5 5 5 5 5 5 5 4 4 3 3 3 2 2 2 2 1 1 1 1 1 1 1 1
3 4 5 6 6 6 7 8 8 8 8 8 8 9 9 8 8 8 8 8 8 7 7 6 5 5 5 5 4 4 4 4 3 3 3 2 2 2 1 1 0 1 1 0 1 0 1 1 2
1 3 4 4 5 6 6 6 7 7 7 7 7 7 8 8 8 8 8 8 7 7 7 6 6 6 5 4 4 4 4 3 3 2 3 3 2 1 0 0 1 1 1 1 1 1 2 2 2
1 2 3 3 3 5 5 7 6 6 6 6 6 7 8 8 8 8 7 7 7 7 7 6 6 6 6 5 4 3 3 3 3 2 2 1 1 0 1 1 2 2 2 2 2 3 3 3 4
2 2 3 3 2 4 5 6 6 6 6 5 6 6 7 7 7 7 7 7 7 7 7 7 6 6 6 6 4 3 3 2 2 2 1 1 1 1 1 2 2 2 3 3 3 3 4 5 5
3 3 3 5 4 3 4 5 5 5 6 6 6 5 6 6 7 7 7 7 7 7 7 7 7 6 6 6 4 3 3 3 3 2 2 1 2 2 2 3 4 4 4 4 4 4 5 5 5
5 5 5 6 6 5 5 6 6 6 6 7 6 5 5 6 7 7 7 7 6 6 6 6 6 6 6 5 4 4 3 3 3 2 2 2 3 3 3 4 4 4 4 4 4 4 5 5 6
6 6 6 7 8 7 7 6 7 7 6 6 6 5 6 6 6 6 7 7 6 6 6 6 6 6 6 6 5 4 4 3 3 2 3 3 4 4 4 4 5 5 5 5 5 5 6 6 7
7 7 7 9 9 9 9 7 7 7 6 5 6 5 6 6 7 7 7 7 6 7 7 7 6 6 7 6 6 5 5 4 4 3 3 4 4 5 5 5 5 6 6 6 6 7 7 8 8
9 8 9 10 10 10 9 8 8 7 7 7 7 6 6 7 8 8 8 8 7 7 7 7 6 6 7 7 7 6 6 5 5 4 4 5 5 5 5 6 7 7 7 6 7 8 8 9 9
11 11 11 10 10 9 10 8 9 9 9 8 8 7 7 8 8 9 9 8 8 7 7 7 7 7 7 7 7 7 7 6 6 5 6 6 6 6 7 7 7 7 7 8 8 8 9 9 9
14 13 12 11 11 10 10 9 9 10 9 9 8 8 8 8 9 9 9 9 9 8 8 7 7 7 7 8 8 8 8 7 7 6 6 7 7 7 8 8 8 8 8 8 8 9 9 9 10
15 14 14 13 12 11 11 10 9 11 10 10 9 9 9 9 9 9 9 10 10 9 9 8 7 8 8 8 8 8 8 8 7 7 7 7 8 8 9 10 10 10 9 9 10 10 9 10 11
16 14 12 12 13 12 14 12 11 12 12 11 10 9 9 9 9 10 10 10 10 10 10 10 9 9 9 9 9 10 9 9 8 8 8 9 9 10 10 11 10 10 10 10 11 11 11 11 12
18 15 14 13 13 14 14 12 12 12 12 12 11 10 10 10 10 10 11 11 11 11 10 10 10 10 10 10 11 11 11 10 10 10 9 10 10 11 11 11 11 11 11 11 12 11 12 12 13
19 17 16 15 14 13 13 13 12 12 13 13 12 12 12 12 12 12 12 12 12 12 12 12 11 11 11 11 11 11 11 11 11 11 11 11 11 12 12 12 12 12 12 12 13 13 13 14 14
21 19 17 16 15 14 15 14 12 13 13 13 13 13 14 14 14 14 13 13 13 13 13 14 13 13 13 13 12 13 13 12 12 12 12 13 13 13 13 13 13 13 13 14 14 14 14 14 14
21 21 19 18 17 15 15 14 15 14 14 14 14 15 14 14 14 14 15 15 15 14 14 15 15 15 15 14 14 14 14 14 14 14 14 14 14 13 14 14 13 14 14 15 15 15 15 15 15
23 22 21 19 19 18 16 17 18 16 15 15 16 16 15 15 15 16 16 16 17 16 16 15 16 17 16 16 15 15 14 15 15 15 14 15 15 14 14 14 14 14 15 16 15 16 16 16 16
Wind_Direction
77 78 79 82 79 75 77 76 76 77 78 78 76 75 75 72 76 78 81 78 71 67 71 79 66 65 51 78 121 146 158 167 172 181 186 186 185 184 183 181 183 190 187 179 182 184 193 196 205
78 78 80 81 79 81 77 77 75 74 76 76 75 73 71 69 69 70 70 67 68 64 61 65 61 55 48 85 117 143 150 160 163 176 189 194 189 183 179 181 181 182 186 190 191 195 205 212 213
80 77 79 79 79 81 78 77 76 76 74 74 73 69 66 65 66 67 64 61 60 57 53 52 54 48 44 84 105 106 131 148 155 164 182 190 188 185 178 176 178 183 190 191 197 212 219 230 227
80 79 78 77 77 76 75 75 73 74 73 71 71 67 64 62 59 58 58 56 53 51 49 42 49 49 40 51 54 32 106 143 155 154 146 159 163 169 174 178 182 190 200 202 210 220 219 247 263
80 78 75 74 76 72 69 70 68 69 71 69 69 68 62 59 57 55 54 52 50 50 49 39 49 44 42 22 21 8 93 179 169 157 136 129 142 157 165 171 183 192 204 212 218 229 236 231 256
80 78 79 76 71 69 68 67 67 66 66 65 65 64 60 57 55 53 52 50 49 48 46 41 49 44 41 26 22 20 305 187 169 157 144 129 137 151 157 167 178 193 200 206 216 233 243 231 254
79 81 80 75 69 65 67 66 68 67 65 64 62 59 55 54 52 51 50 48 48 49 50 48 44 39 33 19 10 7 331 182 163 150 143 134 135 145 158 171 181 189 202 207 214 234 241 250 267
79 80 78 74 70 64 63 64 66 66 63 59 57 56 52 52 50 48 47 46 48 48 50 48 41 33 29 26 25 25 28 146 161 149 132 130 125 129 141 154 168 169 182 199 212 228 232 243 269
79 81 78 75 72 65 62 63 62 62 60 55 53 54 53 52 52 50 48 44 45 48 50 49 40 34 31 32 39 40 54 87 122 138 130 125 115 120 129 140 147 158 172 185 215 221 213 208 237
80 82 76 72 70 66 61 60 60 58 57 54 53 52 51 52 51 49 45 41 42 43 44 46 43 46 47 46 46 51 64 81 100 108 109 114 117 122 126 135 145 129 123 178 205 203 193 202 233
71 76 75 70 66 64 57 57 57 55 54 52 51 50 48 50 50 45 41 39 37 42 45 46 52 56 56 53 55 58 59 72 83 98 98 110 124 119 133 135 137 139 133 129 173 187 156 193 306
68 68 67 67 65 63 58 57 58 54 53 51 49 46 44 50 49 44 41 37 37 44 49 50 52 55 60 62 63 59 60 68 82 87 91 106 112 105 123 130 124 114 116 122 148 168 178 239 296
66 61 63 62 58 59 57 52 50 49 49 49 45 42 40 41 39 39 38 39 40 39 41 47 51 55 61 65 65 60 58 69 79 73 77 89 101 86 85 52 41 314 324 102 91 127 211 282 315
52 43 47 48 45 47 50 43 39 40 40 41 42 37 33 32 30 30 30 34 37 39 39 42 45 49 52 54 54 56 59 61 61 61 68 75 81 65 47 217 326 297 287 332 305 271 261 273 296
247 352 1 14 30 32 39 34 27 30 28 33 34 28 23 21 19 24 31 34 36 36 36 36 38 43 46 43 40 36 48 59 53 54 53 44 36 326 311 295 293 295 308 308 284 282 277 284 292
258 299 319 317 344 12 26 18 15 14 7 10 10 11 14 13 15 19 21 26 32 32 30 28 32 35 34 32 33 37 43 51 43 38 33 359 331 312 324 304 293 306 310 305 296 289 288 289 287
272 268 278 289 302 324 350 352 350 355 353 350 347 351 5 12 12 9 10 15 22 23 21 22 24 26 24 22 25 31 35 29 11 2 345 324 302 317 320 308 302 305 309 308 301 296 296 288 286
255 255 266 281 292 303 318 328 329 333 338 339 341 345 355 357 2 2 3 7 11 16 18 15 11 13 16 19 22 21 18 7 354 349 327 314 300 305 311 309 305 308 305 301 297 300 298 297 293
251 252 262 273 285 294 302 312 320 327 332 333 332 333 344 345 347 350 352 352 355 1 2 2 4 10 16 17 11 8 8 3 349 335 325 313 305 297 294 302 303 306 308 303 301 305 307 304 303
254 260 266 274 283 287 295 306 308 310 321 324 321 321 329 338 335 336 337 335 340 345 348 350 352 358 4 6 3 357 353 349 348 338 325 319 314 302 299 298 298 295 301 300 298 302 304 304 305
252 257 261 271 281 286 293 306 307 306 308 312 314 313 316 320 322 324 324 325 326 331 334 338 343 346 349 350 347 345 342 335 338 337 331 322 316 307 303 304 302 302 303 302 297 302 303 302 299
251 257 259 265 275 284 289 295 304 304 304 305 303 302 308 310 313 318 320 318 317 318 322 329 330 331 334 336 337 337 335 328 324 320 320 320 316 311 306 302 304 306 303 300 296 299 303 302 301
252 257 262 265 273 281 291 296 296 303 305 301 295 292 296 300 303 307 310 312 309 307 310 315 320 320 323 324 324 327 328 325 321 316 314 318 313 307 308 304 301 302 301 299 299 296 298 299 299
255 260 267 271 274 278 283 289 289 293 298 297 291 288 288 295 297 298 299 302 301 297 299 303 307 309 314 318 320 323 322 318 316 312 307 306 305 303 304 305 299 294 295 297 301 299 295 296 297
253 257 266 274 276 276 279 281 278 282 288 291 289 284 285 290 294 295 298 300 297 292 292 296 296 300 304 308 311 314 312 308 307 306 304 300 299 299 300 302 298 294 295 296 297 297 298 298 298
252 251 253 263 273 278 280 279 281 283 284 287 286 281 283 283 286 288 291 294 294 289 288 289 291 294 298 299 303 305 306 304 301 302 304 305 300 297 297 300 297 295 295 296 296 294 298 297 296
249 250 252 259 266 273 274 278 280 282 285 285 283 280 280 280 281 283 286 287 287 284 283 282 287 291 295 297 301 305 308 305 302 300 302 302 300 298 298 298 296 293 295 297 296 294 294 293 293
247 249 254 258 263 270 273 277 279 282 283 282 282 281 280 282 282 283 287 286 285 284 282 280 281 286 289 292 297 299 301 301 300 300 301 303 301 299 300 300 300 297 294 296 297 295 295 295 295
247 249 252 256 258 266 274 276 276 281 284 282 281 283 283 283 284 283 285 285 287 286 284 283 281 282 283 287 291 293 295 296 297 297 298 300 300 300 301 303 302 303 302 300 297 295 295 295 295
246 249 253 256 261 262 266 274 275 278 280 280 279 282 281 280 280 279 282 283 285 285 282 282 282 284 282 283 286 289 292 292 292 293 294 295 296 298 300 302 302 302 302 299 295 292 291 292 293
Height
5905 5904 5904 5904 5905 5905 5904 5903 5901 5900 5899 5898 5897 5895 5894 5894 5894 5895 5892 5890 5890 5889 5888 5887 5886 5886 5885 5885 5884 5884 5883 5883 5883 5883 5883 5883 5883 5883 5884 5884 5884 5885 5885 5886 5887 5887 5887 5888 5888
5907 5906 5907 5907 5907 5907 5906 5904 5903 5901 5900 5899 5898 5897 5896 5895 5894 5893 5892 5891 5890 5889 5888 5888 5887 5886 5886 5885 5884 5883 5883 5883 5883 5883 5882 5882 5882 5883 5883 5884 5884 5885 5885 5886 5886 5887 5887 5887 5887
5909 5908 5909 5909 5909 5908 5907 5906 5904 5903 5901 5900 5899 5898 5897 5896 5895 5894 5893 5892 5891 5890 5889 5888 5887 5887 5886 5885 5884 5883 5883 5883 5883 5882 5881 5880 5880 5881 5883 5883 5884 5885 5885 5886 5886 5886 5887 5887 5887
5911 5911 5912 5912 5911 5910 5909 5907 5906 5904 5903 5901 5900 5899 5898 5897 5896 5895 5893 5892 5891 5890 5889 5888 5888 5887 5885 5885 5884 5883 5883 5883 5883 5882 5880 5878 5879 5881 5882 5883 5884 5885 5885 5885 5886 5886 5886 5886 5886
5913 5913 5914 5914 5913 5912 5910 5909 5907 5905 5904 5902 5901 5900 5899 5898 5896 5895 5894 5893 5892 5891 5890 5889 5888 5887 5886 5885 5884 5883 5883 5882 5882 5882 5881 5880 5880 5881 5882 5883 5884 5884 5885 5885 5886 5886 5886 5886 5886
5916 5916 5917 5916 5914 5913 5911 5910 5908 5907 5905 5904 5902 5901 5900 5898 5897 5896 5895 5894 5893 5892 5891 5890 5889 5888 5887 5885 5884 5883 5882 5881 5881 5882 5882 5881 5882 5882 5883 5883 5884 5884 5885 5885 5885 5885 5885 5885 5885
5918 5918 5918 5917 5916 5915 5913 5911 5909 5908 5907 5905 5904 5902 5901 5899 5898 5897 5896 5894 5893 5892 5891 5890 5889 5888 5887 5886 5884 5882 5880 5880 5881 5881 5882 5882 5882 5882 5883 5883 5884 5884 5885 5885 5885 5885 5884 5885 5885
5919 5920 5920 5919 5918 5916 5914 5912 5911 5909 5908 5907 5905 5904 5902 5901 5899 5898 5897 5895 5894 5893 5892 5891 5890 5888 5887 5886 5884 5882 5880 5880 5880 5881 5882 5882 5882 5883 5883 5883 5884 5884 5884 5884 5884 5884 5884 5884 5884
5920 5922 5921 5920 5919 5917 5915 5914 5912 5910 5909 5908 5906 5905 5903 5902 5900 5899 5898 5896 5895 5894 5893 5891 5890 5889 5888 5886 5884 5882 5880 5879 5880 5881 5882 5883 5883 5883 5883 5884 5884 5884 5884 5884 5884 5884 5884 5884 5884
5922 5923 5922 5921 5920 5918 5917 5915 5914 5912 5911 5909 5908 5906 5904 5903 5902 5900 5899 5897 5896 5894 5893 5892 5891 5890 5888 5887 5885 5883 5881 5881 5881 5883 5883 5883 5883 5883 5884 5884 5884 5884 5884 5884 5884 5884 5884 5883 5883
5923 5923 5922 5922 5921 5919 5918 5917 5915 5913 5912 5911 5909 5908 5906 5904 5903 5901 5900 5898 5897 5895 5894 5893 5892 5891 5890 5888 5887 5886 5884 5883 5883 5884 5884 5883 5884 5884 5884 5884 5884 5884 5884 5884 5884 5883 5883 5883 5883
5924 5924 5923 5922 5922 5920 5919 5918 5916 5915 5914 5912 5911 5909 5908 5906 5904 5902 5901 5899 5897 5896 5895 5894 5893 5892 5890 5889 5889 5888 5886 5886 5885 5885 5884 5884 5884 5884 5884 5884 5884 5884 5883 5883 5883 5883 5883 5883 5882
5925 5924 5924 5923 5922 5921 5920 5919 5918 5916 5915 5913 5912 5910 5909 5907 5905 5903 5902 5900 5898 5897 5896 5894 5893 5892 5891 5890 5889 5889 5888 5887 5886 5886 5885 5885 5885 5885 5885 5884 5884 5884 5883 5883 5883 5883 5883 5883 5882
5925 5925 5924 5924 5923 5922 5921 5920 5919 5917 5916 5914 5913 5911 5910 5908 5906 5904 5903 5901 5899 5898 5897 5896 5894 5893 5892 5891 5890 5889 5888 5888 5887 5886 5886 5885 5885 5885 5885 5884 5884 5883 5883 5883 5883 5883 5883 5882 5882
5925 5925 5925 5924 5923 5923 5922 5922 5920 5918 5916 5915 5913 5912 5910 5908 5907 5905 5903 5902 5900 5898 5897 5896 5895 5894 5893 5892 5891 5890 5889 5888 5887 5887 5886 5886 5885 5885 5884 5884 5884 5883 5883 5883 5883 5882 5882 5881 5881
5925 5926 5926 5925 5924 5923 5924 5923 5921 5919 5917 5916 5914 5913 5911 5909 5908 5906 5904 5903 5901 5899 5898 5897 5896 5895 5893 5892 5891 5890 5889 5888 5887 5887 5886 5886 5885 5885 5884 5884 5884 5883 5883 5882 5882 5882 5881 5881 5880
5925 5926 5926 5925 5923 5923 5923 5922 5921 5919 5918 5916 5914 5913 5911 5910 5908 5907 5905 5903 5902 5900 5899 5898 5896 5895 5894 5892 5891 5890 5889 5888 5887 5886 5886 5886 5885 5884 5884 5884 5883 5882 5882 5881 5881 5880 5880 5879 5879
5925 5925 5924 5924 5923 5922 5922 5921 5920 5918 5917 5916 5914 5913 5912 5910 5909 5907 5905 5904 5903 5901 5900 5898 5897 5895 5894 5893 5891 5890 5889 5888 5887 5886 5885 5885 5885 5884 5883 5883 5882 5881 5881 5880 5880 5879 5879 5878 5878
5923 5923 5923 5922 5921 5921 5921 5920 5920 5918 5917 5915 5914 5913 5912 5910 5909 5907 5905 5904 5903 5901 5900 5899 5897 5896 5894 5893 5892 5890 5889 5888 5887 5886 5885 5884 5884 5883 5883 5882 5882 5881 5880 5879 5879 5878 5877 5877 5876
5921 5921 5921 5921 5920 5920 5920 5919 5918 5917 5916 5915 5914 5912 5911 5910 5908 5907 5905 5904 5902 5901 5900 5899 5897 5896 5895 5893 5892 5890 5889 5887 5886 5885 5884 5884 5883 5883 5882 5881 5881 5880 5879 5878 5878 5877 5876 5875 5874
5919 5919 5919 5919 5918 5918 5918 5919 5918 5917 5915 5914 5913 5912 5910 5909 5908 5906 5905 5903 5902 5901 5899 5898 5897 5896 5895 5893 5892 5890 5889 5887 5886 5885 5884 5883 5882 5882 5881 5880 5879 5879 5878 5877 5876 5875 5874 5874 5873
5916 5917 5917 5917 5917 5917 5917 5918 5917 5915 5914 5913 5911 5910 5909 5908 5906 5905 5904 5902 5901 5900 5899 5897 5896 5895 5894 5893 5891 5890 5888 5887 5885 5884 5883 5882 5881 5881 5880 5879 5878 5877 5876 5875 5874 5874 5872 5872 5871
5913 5913 5914 5914 5915 5915 5915 5916 5917 5913 5912 5911 5910 5908 5907 5906 5905 5903 5902 5901 5899 5898 5897 5896 5895 5894 5893 5891 5890 5889 5887 5886 5884 5883 5882 5881 5880 5879 5878 5877 5876 5875 5874 5873 5872 5871 5870 5869 5868
5910 5911 5911 5912 5913 5914 5913 5914 5914 5911 5910 5909 5908 5906 5905 5904 5902 5901 5900 5899 5898 5896 5895 5894 5894 5893 5891 5890 5889 5887 5886 5885 5883 5882 5881 5880 5878 5877 5876 5875 5874 5873 5872 5871 5870 5869 5868 5867 5866
5907 5909 5911 5911 5911 5912 5910 5910 5910 5908 5906 5906 5905 5903 5902 5901 5900 5899 5898 5896 5895 5894 5893 5892 5892 5891 5890 5888 5887 5886 5884 5883 5881 5880 5879 5878 5876 5875 5874 5872 5871 5870 5869 5868 5867 5866 5865 5864 5863
5903 5906 5908 5909 5910 5909 5906 5906 5906 5904 5903 5902 5901 5900 5900 5899 5898 5896 5895 5894 5893 5892 5891 5890 5889 5888 5887 5886 5885 5884 5882 5881 5879 5878 5876 5875 5874 5872 5871 5870 5869 5868 5866 5865 5864 5863 5862 5861 5860
5899 5900 5903 5904 5903 5903 5904 5902 5902 5900 5899 5899 5898 5897 5896 5895 5895 5893 5892 5891 5890 5889 5888 5887 5886 5886 5885 5884 5882 5881 5879 5878 5877 5875 5874 5873 5871 5870 5868 5867 5866 5865 5863 5862 5861 5860 5859 5857 5856
5895 5896 5897 5898 5899 5900 5900 5899 5899 5896 5896 5895 5894 5893 5892 5892 5891 5890 5889 5888 5887 5885 5885 5884 5883 5882 5882 5881 5880 5878 5877 5875 5874 5873 5871 5870 5868 5867 5866 5864 5863 5861 5860 5859 5857 5856 5855 5854 5852
5890 5891 5892 5894 5894 5896 5897 5898 5893 5892 5892 5891 5890 5889 5888 5888 5887 5886 5885 5884 5883 5882 5881 5880 5880 5879 5878 5877 5876 5875 5874 5873 5871 5870 5868 5867 5865 5864 5863 5861 5860 5858 5857 5855 5854 5852 5851 5850 5848
5883 5885 5887 5889 5888 5889 5891 5894 5888 5887 5887 5886 5886 5885 5884 5883 5882 5882 5881 5880 5879 5878 5877 5876 5876 5875 5874 5873 5873 5872 5870 5869 5868 5867 5865 5864 5862 5861 5859 5858 5856 5855 5853 5852 5850 5848 5847 5845 5844